N3819L KVUJ-KCLT

Flight info

Callsign N3819L
Flight time 0h 20m
Altitude VFR/030
Route FF
Aircraft C172/L-DOV/C

Departure

Time 2026-05-07 17:16
Airport Stanly County Airport (KVUJ)

Arrival

Time 2026-05-07 17:36
Airport Charlotte Douglas International Airport (KCLT)
Time Latitude Longitude Altitude Speed Heading
2026-05-07 17:09 35.41352 -80.15160 581 ft 0 kts 124°
2026-05-07 17:12 35.41351 -80.15159 581 ft 2 kts 123°
2026-05-07 17:12 35.41382 -80.15096 580 ft 15 kts 35°
2026-05-07 17:12 35.41472 -80.15009 579 ft 16 kts 38°
2026-05-07 17:12 35.41556 -80.14934 578 ft 15 kts 38°
2026-05-07 17:13 35.41640 -80.14856 578 ft 16 kts 35°
2026-05-07 17:13 35.41730 -80.14775 577 ft 17 kts 36°
2026-05-07 17:13 35.41824 -80.14689 576 ft 17 kts 38°
2026-05-07 17:13 35.41920 -80.14598 575 ft 18 kts 37°
2026-05-07 17:14 35.42010 -80.14526 575 ft 5 kts 353°
2026-05-07 17:14 35.42022 -80.14532 575 ft 0 kts 315°
2026-05-07 17:14 35.42053 -80.14597 575 ft 17 kts 271°
2026-05-07 17:15 35.41989 -80.14673 576 ft 31 kts 217°
2026-05-07 17:15 35.41685 -80.14957 577 ft 77 kts 215°
2026-05-07 17:15 35.41221 -80.15399 730 ft 86 kts 218°
2026-05-07 17:15 35.40758 -80.15896 921 ft 92 kts 221°
2026-05-07 17:16 35.40303 -80.16440 1137 ft 92 kts 234°
2026-05-07 17:16 35.40063 -80.17196 1353 ft 91 kts 252°
2026-05-07 17:16 35.39869 -80.17920 1504 ft 99 kts 255°
2026-05-07 17:16 35.39696 -80.18768 1676 ft 99 kts 259°
2026-05-07 17:17 35.39549 -80.19599 1880 ft 100 kts 255°
2026-05-07 17:17 35.39311 -80.20441 1935 ft 111 kts 255°
2026-05-07 17:17 35.39103 -80.21365 2023 ft 115 kts 259°
2026-05-07 17:17 35.38923 -80.22334 2113 ft 121 kts 260°
2026-05-07 17:18 35.38728 -80.23372 2123 ft 128 kts 260°
2026-05-07 17:18 35.38662 -80.24434 2121 ft 123 kts 277°
2026-05-07 17:18 35.38747 -80.25513 2076 ft 129 kts 279°
2026-05-07 17:18 35.38887 -80.26593 2103 ft 128 kts 282°
2026-05-07 17:19 35.38955 -80.27648 2204 ft 122 kts 263°
2026-05-07 17:19 35.38691 -80.28630 2235 ft 124 kts 253°
2026-05-07 17:19 35.38398 -80.29640 2224 ft 127 kts 252°
2026-05-07 17:19 35.38098 -80.30659 2212 ft 127 kts 253°
2026-05-07 17:20 35.37790 -80.31677 2208 ft 127 kts 252°
2026-05-07 17:20 35.37475 -80.32696 2222 ft 128 kts 252°
2026-05-07 17:20 35.37154 -80.33708 2228 ft 130 kts 252°
2026-05-07 17:20 35.36819 -80.34744 2230 ft 132 kts 251°
2026-05-07 17:21 35.36477 -80.35790 2232 ft 133 kts 251°
2026-05-07 17:21 35.36124 -80.36845 2217 ft 134 kts 251°
2026-05-07 17:21 35.35768 -80.37894 2194 ft 133 kts 250°
2026-05-07 17:21 35.35409 -80.38933 2200 ft 132 kts 250°
2026-05-07 17:22 35.35043 -80.39964 2208 ft 132 kts 250°
2026-05-07 17:22 35.34673 -80.40999 2215 ft 133 kts 249°
2026-05-07 17:22 35.34299 -80.42030 2205 ft 132 kts 248°
2026-05-07 17:22 35.33920 -80.43053 2184 ft 131 kts 246°
2026-05-07 17:23 35.33540 -80.44058 2190 ft 129 kts 246°
2026-05-07 17:23 35.33152 -80.45063 2192 ft 132 kts 248°
2026-05-07 17:23 35.32754 -80.46085 2216 ft 135 kts 246°
2026-05-07 17:23 35.32344 -80.47135 2223 ft 138 kts 248°
2026-05-07 17:24 35.31933 -80.48185 2214 ft 139 kts 246°
2026-05-07 17:24 35.31523 -80.49250 2195 ft 139 kts 249°
2026-05-07 17:24 35.31109 -80.50315 2169 ft 138 kts 246°
2026-05-07 17:24 35.30688 -80.51358 2162 ft 134 kts 245°
2026-05-07 17:25 35.30274 -80.52368 2169 ft 132 kts 245°
2026-05-07 17:25 35.29859 -80.53370 2176 ft 133 kts 245°
2026-05-07 17:25 35.29490 -80.54393 2167 ft 130 kts 249°
2026-05-07 17:25 35.29135 -80.55413 2169 ft 130 kts 248°
2026-05-07 17:26 35.28772 -80.56433 2169 ft 131 kts 248°
2026-05-07 17:26 35.28405 -80.57449 2168 ft 131 kts 247°
2026-05-07 17:26 35.28033 -80.58461 2166 ft 130 kts 246°
2026-05-07 17:26 35.27654 -80.59469 2165 ft 130 kts 247°
2026-05-07 17:27 35.27271 -80.60473 2167 ft 130 kts 246°
2026-05-07 17:27 35.26881 -80.61473 2168 ft 130 kts 245°
2026-05-07 17:27 35.26485 -80.62474 2166 ft 130 kts 245°
2026-05-07 17:27 35.26084 -80.63467 2201 ft 130 kts 245°
2026-05-07 17:28 35.25680 -80.64454 2203 ft 130 kts 245°
2026-05-07 17:28 35.25269 -80.65438 2202 ft 130 kts 244°
2026-05-07 17:28 35.24852 -80.66419 2212 ft 130 kts 244°
2026-05-07 17:28 35.24426 -80.67405 2210 ft 131 kts 243°
2026-05-07 17:29 35.23999 -80.68376 2210 ft 132 kts 243°
2026-05-07 17:29 35.23560 -80.69361 2204 ft 132 kts 242°
2026-05-07 17:29 35.23118 -80.70338 2199 ft 131 kts 242°
2026-05-07 17:29 35.22671 -80.71306 2195 ft 130 kts 242°
2026-05-07 17:30 35.22221 -80.72266 2200 ft 130 kts 241°
2026-05-07 17:30 35.21765 -80.73224 2201 ft 131 kts 242°
2026-05-07 17:30 35.21300 -80.74187 2192 ft 131 kts 240°
2026-05-07 17:30 35.20830 -80.75144 2189 ft 131 kts 240°
2026-05-07 17:31 35.20354 -80.76099 2192 ft 131 kts 239°
2026-05-07 17:31 35.19872 -80.77052 2187 ft 132 kts 240°
2026-05-07 17:31 35.19386 -80.77999 2190 ft 131 kts 239°
2026-05-07 17:31 35.18896 -80.78941 2189 ft 131 kts 239°
2026-05-07 17:32 35.18401 -80.79878 2191 ft 131 kts 238°
2026-05-07 17:32 35.17900 -80.80808 2193 ft 131 kts 238°
2026-05-07 17:32 35.17403 -80.81722 2189 ft 130 kts 237°
2026-05-07 17:32 35.17067 -80.82345 2203 ft 128 kts 241°
2026-05-07 17:33 35.16755 -80.83735 2184 ft 128 kts 262°
2026-05-07 17:33 35.16606 -80.84805 2207 ft 128 kts 261°
2026-05-07 17:33 35.16455 -80.85882 2211 ft 129 kts 263°
2026-05-07 17:33 35.16526 -80.86943 2246 ft 125 kts 295°
2026-05-07 17:34 35.16879 -80.87917 2258 ft 127 kts 294°
2026-05-07 17:34 35.17214 -80.88924 2265 ft 128 kts 291°
2026-05-07 17:34 35.17514 -80.89964 2194 ft 126 kts 290°
2026-05-07 17:34 35.17818 -80.90918 1973 ft 118 kts 294°
2026-05-07 17:35 35.18133 -80.91824 1718 ft 112 kts 293°
2026-05-07 17:35 35.18539 -80.92559 1492 ft 99 kts 310°
2026-05-07 17:35 35.19057 -80.93110 1196 ft 98 kts 322°
2026-05-07 17:35 35.19664 -80.93374 926 ft 91 kts 351°
2026-05-07 17:36 35.20242 -80.93436 718 ft 75 kts 349°
2026-05-07 17:36 35.20658 -80.93471 710 ft 36 kts
2026-05-07 17:36 35.20776 -80.93489 711 ft 10 kts 310°
2026-05-07 17:36 35.20777 -80.93556 711 ft 7 kts 267°
2026-05-07 17:37 35.20787 -80.93605 713 ft 6 kts 339°
2026-05-07 17:37 35.20823 -80.93611 711 ft 4 kts 354°
2026-05-07 17:37 35.20865 -80.93613 711 ft 10 kts 354°
2026-05-07 17:37 35.20987 -80.93623 713 ft 26 kts 355°
2026-05-07 17:38 35.21153 -80.93636 714 ft 22 kts 355°
2026-05-07 17:38 35.21295 -80.93648 716 ft 19 kts 356°
2026-05-07 17:38 35.21425 -80.93688 718 ft 19 kts 319°
2026-05-07 17:38 35.21517 -80.93784 720 ft 15 kts 320°
2026-05-07 17:39 35.21496 -80.93881 718 ft 14 kts 229°
2026-05-07 17:39 35.21423 -80.93973 719 ft 15 kts 208°
2026-05-07 17:39 35.21375 -80.93907 716 ft 14 kts 84°
2026-05-07 17:39 35.21412 -80.93799 718 ft 11 kts 355°
2026-05-07 17:40 35.21447 -80.93837 717 ft 0 kts 321°